[[{"header":{"parameterUnit":"m.s-1","parameterCategory":1,"la1":30.2991,"la2":30.254,"lo1":-89.0895,"lo2":-89.0444,"dy":0.0017,"dx":0.0017,"nx":28,"ny":28,"refTime":"2025-06-21T09:00:00:Z","depth":0,"parameterNumber":2,"parameterNumberName":"U-component_of_WINDS"},"data":[0,0,0,0,0,0,0,0,0,0,0,0,0,0,0,0,0,0,0,0,0,0,0,0,0,0,0,0,0,0,0,0,0,0,0,0,0,0,0,0,0,0,0,0,0,0,0,0,0,0,0,0,0,0,0,0,0,0,-0.8426,-0.8425,0,-0.8364,-0.8363,-0.8363,-0.8332,-0.8332,-0.8332,-0.8332,-0.8265,-0.8263,-0.8262,0,0,0,0,0,0,0,0,0,0,0,0,0,-0.8516,-0.8514,-0.8426,-0.8425,-0.8425,-0.8364,-0.8363,-0.8363,-0.8332,-0.8332,-0.8332,-0.8332,-0.8266,-0.8263,-0.8261,0,0,0,0,0,0,0,0,0,0,0,0,0,-0.8468,-0.8514,-0.8426,-0.8402,-0.8399,-0.8364,-0.8363,-0.8362,-0.8332,-0.8332,-0.8332,-0.8332,-0.8266,-0.8264,-0.8261,-0.8245,0,0,-0.8253,-0.8252,0,0,0,0,0,0,0,0,-0.847,-0.8464,-0.8406,-0.8404,-0.84,-0.8356,-0.8371,-0.8323,-0.8332,-0.8357,-0.8332,-0.8331,-0.8295,-0.829,-0.8278,-0.8242,-0.8239,-0.8253,-0.8251,-0.825,-0.8249,0,0,0,0,0,0,0,-0.8474,-0.8467,-0.8402,-0.8405,-0.8402,-0.8394,-0.8387,-0.8361,-0.8327,-0.8355,-0.8352,-0.8346,-0.8293,-0.8281,-0.8276,-0.8238,-0.8253,-0.825,-0.8249,-0.8248,-0.8186,-0.8186,0,0,0,0,0,0,-0.8481,-0.847,-0.8403,-0.84,-0.8436,-0.8392,-0.8384,-0.837,-0.8327,-0.832,-0.8346,-0.8345,-0.8285,-0.828,-0.8274,-0.8253,-0.825,-0.8248,-0.8246,-0.8186,-0.8186,-0.8186,0,0,0,0,0,0,-0.8483,-0.8476,-0.8406,-0.8434,-0.8425,-0.839,-0.8375,-0.8369,-0.8356,-0.832,-0.8314,-0.834,-0.8285,-0.8278,-0.8253,-0.825,-0.8246,-0.8244,-0.8187,-0.8186,-0.8186,-0.821,0,0,0,0,0,0,-0.8486,-0.8477,-0.847,-0.8434,-0.8423,-0.8386,-0.8374,-0.8368,-0.8352,-0.835,-0.8313,-0.8306,-0.8285,-0.8257,-0.825,-0.8246,-0.8242,-0.8187,-0.8186,-0.8186,-0.8209,-0.8211,-0.8212,0,0,0,0,0,-0.8489,-0.8479,-0.847,-0.8462,-0.8415,-0.8386,-0.838,-0.8356,-0.8352,-0.8345,-0.8322,-0.8308,-0.8252,-0.8255,-0.8247,-0.8242,-0.8187,-0.8187,-0.8186,-0.8209,-0.8211,-0.8212,0,0,0,0,0,0,-0.8514,-0.8473,-0.8464,-0.8441,-0.8418,-0.8381,-0.8372,-0.8359,-0.8335,-0.8333,-0.8304,-0.8296,-0.8274,-0.8255,-0.826,-0.8225,-0.8218,-0.8216,-0.8237,-0.8239,-0.824,-0.8245,-0.824,0,0,0,0,0,-0.8517,-0.8498,-0.8463,-0.8447,-0.8436,-0.8406,-0.8393,-0.8377,-0.8351,-0.834,-0.8315,-0.829,-0.8267,-0.8252,-0.8228,-0.8207,-0.8198,-0.82,-0.8201,-0.8203,-0.8201,-0.8189,-0.8189,-0.8186,-0.8186,-0.8186,0,0,-0.8523,-0.8498,-0.8488,-0.8451,-0.8431,-0.8412,-0.8398,-0.8377,-0.8362,-0.8337,-0.8312,-0.8293,-0.8263,-0.824,-0.8229,-0.8224,-0.8201,-0.8203,-0.8204,-0.8202,-0.8189,-0.8189,-0.819,-0.8186,-0.8186,-0.8186,0,0,-0.8523,-0.8503,-0.8487,-0.8468,-0.8438,-0.8419,-0.8415,-0.8381,-0.8368,-0.8343,-0.8324,-0.8305,-0.8266,-0.8245,-0.823,-0.8225,-0.821,-0.8218,-0.8224,-0.8213,-0.8213,-0.8213,-0.8211,-0.8211,-0.8217,-0.8217,-0.8217,0,-0.8533,-0.8504,-0.848,-0.8461,-0.8446,-0.8424,-0.8407,-0.8389,-0.8353,-0.8343,-0.8339,-0.829,-0.8268,-0.824,-0.8239,-0.8227,-0.8222,-0.8221,-0.8215,-0.8215,-0.8215,-0.8213,-0.8212,-0.8218,-0.8218,-0.8218,-0.8217,0,-0.8518,-0.8498,-0.8489,-0.8456,-0.844,-0.8422,-0.8396,-0.8382,-0.8368,-0.8349,-0.8324,-0.8298,-0.8269,-0.8261,-0.8246,-0.8232,-0.823,-0.8221,-0.8213,-0.8217,-0.8214,-0.8213,-0.8219,-0.8219,-0.8219,-0.8218,0,0,-0.853,-0.8486,-0.8483,-0.8468,-0.8435,-0.8419,-0.8401,-0.8374,-0.8363,-0.8339,-0.8323,-0.8291,-0.8283,-0.8265,-0.8248,-0.8239,-0.8236,-0.8231,-0.8229,-0.8232,-0.8219,-0.8226,-0.8225,-0.8227,-0.8227,-0.8227,-0.8221,0,-0.8525,-0.8493,-0.8472,-0.8447,-0.8428,-0.8408,-0.8392,-0.837,-0.8352,-0.8333,-0.8313,-0.8291,-0.8282,-0.8272,-0.8261,-0.8239,-0.8233,-0.8239,-0.8211,-0.8211,-0.8219,-0.8224,-0.823,-0.8226,-0.822,-0.822,-0.822,0,-0.8515,-0.8493,-0.8467,-0.8437,-0.8428,-0.8415,-0.8389,-0.8372,-0.8346,-0.8334,-0.8315,-0.8299,-0.8278,-0.8274,-0.8245,-0.825,-0.8237,-0.8225,-0.8224,-0.822,-0.8215,-0.8219,-0.8224,-0.8224,-0.8218,-0.8218,-0.8218,0,-0.8527,-0.8491,-0.8471,-0.8459,-0.8423,-0.8414,-0.8399,-0.8373,-0.8359,-0.8336,-0.8327,-0.8302,-0.8288,-0.8269,-0.8246,-0.8245,-0.822,-0.8213,-0.8209,-0.821,-0.8204,-0.8204,-0.8207,-0.8197,-0.8197,-0.8197,-0.8197,0,-0.8523,-0.8508,-0.8476,-0.8463,-0.8446,-0.8422,-0.8405,-0.8388,-0.8366,-0.835,-0.833,-0.8315,-0.8286,-0.8267,-0.8249,-0.8229,-0.8223,-0.8212,-0.8207,-0.8213,-0.8215,-0.8204,-0.8204,-0.8197,-0.8197,-0.8197,-0.8197,0,-0.8533,-0.8511,-0.8487,-0.8456,-0.8448,-0.8437,-0.8409,-0.8396,-0.8379,-0.8358,-0.8352,-0.8324,-0.8301,-0.8277,-0.8245,-0.8233,-0.8213,-0.8207,-0.8222,-0.8219,-0.8217,-0.8217,-0.8212,-0.821,-0.8202,-0.8202,-0.8202,0,-0.8531,-0.852,-0.8488,-0.8476,-0.8461,-0.8442,-0.8428,-0.8405,-0.8391,-0.8362,-0.8352,-0.8328,-0.8308,-0.8273,-0.8249,-0.8225,-0.8217,-0.8217,-0.8213,-0.822,-0.8217,-0.8218,-0.8216,-0.8218,-0.8218,-0.8218,-0.8218,0,-0.8532,-0.8522,-0.8503,-0.848,-0.8464,-0.8445,-0.8424,-0.8416,-0.8388,-0.8373,-0.8351,-0.8335,-0.8304,-0.828,-0.8254,-0.8237,-0.8223,-0.822,-0.8218,-0.8224,-0.8233,-0.8228,-0.8225,-0.822,-0.822,-0.822,-0.822,-0.822,-0.8536,-0.8525,-0.8501,-0.848,-0.8463,-0.8445,-0.8432,-0.8413,-0.8394,-0.8367,-0.8355,-0.8332,-0.8307,-0.8271,-0.8255,-0.8237,-0.8232,-0.8229,-0.8228,-0.8227,-0.8229,-0.8237,-0.8232,-0.8232,-0.8232,-0.8231,-0.8231,0,-0.8535,-0.8519,-0.8501,-0.8474,-0.8458,-0.8448,-0.8425,-0.8412,-0.8393,-0.8372,-0.8353,-0.8327,-0.8304,-0.8279,-0.8255,-0.8246,-0.8239,-0.824,-0.824,-0.8237,-0.8234,-0.8239,-0.8246,-0.8246,-0.8246,-0.8246,-0.8246,-0.8246,-0.8533,-0.8514,-0.8501,-0.8473,-0.8457,-0.8436,-0.8424,-0.8407,-0.839,-0.8363,-0.8344,-0.8329,-0.8306,-0.8281,-0.826,-0.8253,-0.8245,-0.8248,-0.824,-0.8238,-0.8237,-0.8235,-0.8239,-0.8247,-0.8247,-0.8243,-0.8243,-0.8243]},{"header":{"parameterUnit":"m.s-1","parameterCategory":1,"la1":30.2991,"la2":30.254,"lo1":-89.0895,"lo2":-89.0444,"dy":0.0017,"dx":0.0017,"nx":28,"ny":28,"refTime":"2025-06-21T09:00:00:Z","depth":0,"parameterNumber":3,"parameterNumberName":"V-component_of_WINDS"},"data":[0,0,0,0,0,0,0,0,0,0,0,0,0,0,0,0,0,0,0,0,0,0,0,0,0,0,0,0,0,0,0,0,0,0,0,0,0,0,0,0,0,0,0,0,0,0,0,0,0,0,0,0,0,0,0,0,0,0,3.6247,3.6247,0,3.6234,3.6234,3.6234,3.6155,3.6153,3.6151,3.6149,3.6137,3.6138,3.614,0,0,0,0,0,0,0,0,0,0,0,0,0,3.6204,3.6205,3.6247,3.6247,3.6247,3.6234,3.6234,3.6234,3.6155,3.6153,3.6151,3.6148,3.6136,3.6138,3.614,0,0,0,0,0,0,0,0,0,0,0,0,0,3.621,3.6205,3.6247,3.6206,3.6202,3.6234,3.6234,3.6234,3.6156,3.6153,3.615,3.6147,3.6136,3.6138,3.614,3.6211,0,0,3.6147,3.6147,0,0,0,0,0,0,0,0,3.621,3.6212,3.6212,3.6209,3.6205,3.6193,3.6214,3.6226,3.6156,3.6173,3.6149,3.6146,3.6158,3.6158,3.6162,3.621,3.6209,3.6147,3.6148,3.6149,3.615,0,0,0,0,0,0,0,3.6209,3.6212,3.6242,3.6212,3.6208,3.6188,3.6186,3.6216,3.6182,3.6172,3.6166,3.6165,3.6155,3.616,3.6161,3.6209,3.6147,3.6149,3.615,3.6151,3.6313,3.6316,0,0,0,0,0,0,3.6215,3.6212,3.6242,3.6241,3.62,3.6191,3.6189,3.62,3.6181,3.6176,3.6168,3.6162,3.6158,3.6159,3.616,3.624,3.6149,3.6151,3.6152,3.631,3.6314,3.6317,0,0,0,0,0,0,3.6214,3.6218,3.6243,3.6225,3.6227,3.6195,3.6208,3.6201,3.6205,3.6178,3.6172,3.6179,3.6155,3.6157,3.6198,3.6238,3.6152,3.6154,3.6307,3.6311,3.6316,3.6401,0,0,0,0,0,0,3.6213,3.6218,3.6245,3.6226,3.6228,3.6281,3.6211,3.6203,3.6209,3.6201,3.6187,3.6182,3.6153,3.6195,3.62,3.624,3.6156,3.6303,3.6309,3.6314,3.6395,3.6408,3.642,0,0,0,0,0,3.6212,3.627,3.6246,3.625,3.626,3.6283,3.6284,3.625,3.6213,3.6239,3.6222,3.6182,3.6234,3.62,3.6205,3.6246,3.63,3.6307,3.6314,3.6389,3.6405,3.6419,0,0,0,0,0,0,3.6294,3.6266,3.624,3.6294,3.6292,3.627,3.6301,3.6269,3.6277,3.6269,3.6227,3.6224,3.6271,3.6263,3.6226,3.6313,3.626,3.6268,3.6316,3.6331,3.6344,3.6343,3.6157,0,0,0,0,0,3.6318,3.6339,3.6314,3.6364,3.6364,3.6334,3.6342,3.6316,3.6312,3.6311,3.6296,3.6294,3.6309,3.632,3.6333,3.6394,3.6389,3.6425,3.6437,3.6448,3.6454,3.6484,3.6499,3.634,3.6339,3.6339,0,0,3.6368,3.6356,3.6372,3.638,3.6375,3.6397,3.6333,3.636,3.6376,3.6315,3.6352,3.6342,3.6336,3.6387,3.6409,3.6382,3.6498,3.6456,3.6465,3.6466,3.6493,3.6508,3.6522,3.6344,3.6343,3.6343,0,0,3.647,3.6464,3.6504,3.65,3.6494,3.6473,3.6483,3.6467,3.6457,3.6494,3.6448,3.6468,3.6496,3.6493,3.6495,3.6598,3.6562,3.6604,3.6668,3.6698,3.6711,3.6721,3.6756,3.6769,3.6611,3.6611,3.6612,0,3.6533,3.6565,3.6529,3.6558,3.6562,3.6509,3.6548,3.6547,3.6545,3.655,3.652,3.6553,3.6546,3.6595,3.662,3.6624,3.6633,3.6604,3.6712,3.6722,3.6732,3.6764,3.6778,3.6616,3.6616,3.6615,3.6615,0,3.6642,3.6665,3.6698,3.6696,3.6705,3.674,3.6709,3.6722,3.6696,3.6679,3.6717,3.6706,3.6716,3.6726,3.6701,3.6771,3.6754,3.6719,3.6665,3.6753,3.6782,3.6795,3.6623,3.6622,3.662,3.6619,0,0,3.6793,3.6772,3.6784,3.6782,3.6772,3.6789,3.6821,3.683,3.6841,3.6843,3.6868,3.6894,3.686,3.6864,3.6838,3.6865,3.6944,3.6826,3.6825,3.6846,3.7019,3.7044,3.7059,3.6922,3.6924,3.6926,3.7019,0,3.6889,3.6941,3.691,3.6968,3.6988,3.6938,3.6966,3.6962,3.6948,3.6963,3.6947,3.6964,3.6921,3.6922,3.6946,3.693,3.6978,3.6923,3.6943,3.6945,3.6943,3.7075,3.7101,3.7189,3.7031,3.7033,3.7034,0,3.7007,3.7013,3.7072,3.7057,3.7064,3.709,3.7095,3.711,3.7106,3.7093,3.7097,3.7065,3.7095,3.7045,3.7085,3.7048,3.7056,3.7049,3.7052,3.705,3.6993,3.7074,3.7217,3.723,3.7052,3.7051,3.705,0,3.7108,3.7131,3.7169,3.717,3.7154,3.7172,3.7167,3.7159,3.7167,3.7172,3.7176,3.7185,3.719,3.7198,3.7169,3.7135,3.7214,3.716,3.7203,3.7204,3.7219,3.7218,3.7362,3.7229,3.7228,3.7228,3.7228,0,3.7217,3.7255,3.7214,3.7237,3.7278,3.7242,3.7284,3.7273,3.7267,3.7287,3.7246,3.7266,3.7228,3.7244,3.7222,3.7259,3.7262,3.7252,3.7245,3.7254,3.7255,3.7256,3.7248,3.7232,3.7231,3.723,3.723,0,3.7335,3.731,3.7348,3.733,3.7326,3.7357,3.7341,3.7362,3.7345,3.7371,3.7375,3.7348,3.7365,3.7338,3.7353,3.7338,3.7388,3.7373,3.7389,3.7383,3.7426,3.7422,3.7574,3.7592,3.7449,3.7451,3.7452,0,3.7405,3.7432,3.7417,3.7428,3.7424,3.7442,3.7449,3.7415,3.7425,3.7422,3.7442,3.7456,3.7464,3.7494,3.7476,3.7486,3.747,3.7523,3.7471,3.7479,3.7468,3.7466,3.7467,3.7532,3.7534,3.7536,3.7537,0,3.753,3.7516,3.7528,3.7535,3.7545,3.7549,3.7551,3.7562,3.7527,3.7539,3.7556,3.7562,3.7577,3.759,3.7596,3.759,3.7558,3.7554,3.7563,3.7571,3.7579,3.7573,3.7415,3.755,3.7548,3.7547,3.7547,3.7546,3.7625,3.7646,3.7639,3.7653,3.7651,3.7653,3.7671,3.7657,3.767,3.7678,3.7658,3.768,3.7674,3.7679,3.7677,3.7693,3.767,3.7685,3.7688,3.7692,3.7697,3.7579,3.7695,3.7694,3.7694,3.7693,3.7693,0,3.7746,3.7739,3.7752,3.7755,3.7767,3.7736,3.7736,3.7747,3.7766,3.7764,3.7773,3.7792,3.7805,3.7789,3.7799,3.7815,3.78,3.7819,3.7816,3.7815,3.7719,3.7708,3.7831,3.783,3.783,3.783,3.783,3.783,3.781,3.7844,3.783,3.7863,3.7856,3.7876,3.7879,3.788,3.7878,3.7901,3.7912,3.7901,3.7893,3.7902,3.7913,3.7908,3.7913,3.7936,3.7925,3.7835,3.7822,3.7809,3.7798,3.7938,3.7938,3.802,3.8021,3.8021]}]]